Home   Weather   Hannover   Past weeks

Flag for Germany Past Weather in Hannover, Lower Saxony, Germany — Yesterday and Last 2 Weeks

Now
84 °F

Partly sunny.


Feels Like: 86 °F
Forecast: 63 / 79 °F
Wind: 9 mph from East

Location: Hannover

Current Time: May 29, 2017 at 7:13:14 pm

Latest Report: May 29, 2017 at 6:50 pm


Visibility: N/A

Pressure: 29.83 "Hg

Humidity: 51%

Dew Point: 64 °F

Location of HannoverLocation

Past Weather in Hannover — Graph

°F

Hannover Temperature Yesterday

Maximum temperature yesterday: 81 °F (at 4:50 pm)
Minimum temperature yesterday: 63 °F (at 4:20 am)
Average temperature yesterday: 72 °F

High & Low Weather Summary for the Past Weeks

 TemperatureHumidityPressure
High88 °F (May 29, 4:50 pm)100% (May 18, 9:50 pm)30.39 "Hg (May 18, 9:50 pm)
Low43 °F (May 21, 5:20 am)33% (May 15, 6:20 pm)29.80 "Hg (May 19, 2:20 am)
Average64 °F68%30.12 "Hg
* Reported May 14 5:20 pm — May 29 5:50 pm, Hannover. Weather by CustomWeather, © 2017

Note: Actual official high and low records may vary slightly from our data, if they occured in-between our weather recording intervals... More about our weather records

Advertising

Hannover Weather History for the Previous 24 Hours

Scroll right to see more
 ConditionsComfort  
Time TempWeatherWind HumidityBarometerVisibility
5:50 pm
Mon, May 29
86 °FSunny.8 mph46%29.86 "Hg10 mi
5:20 pm86 °FSunny.2 mph46%29.86 "Hg10 mi
4:50 pm88 °FSunny.3 mph38%29.86 "Hg10 mi
4:20 pm86 °FSunny.2 mph40%29.89 "Hg10 mi
3:50 pm84 °FSunny.2 mph45%29.89 "Hg10 mi
3:20 pm82 °FPassing clouds.6 mph45%29.89 "HgN/A
2:50 pm82 °FPassing clouds.6 mph48%29.89 "HgN/A
2:20 pm81 °FPassing clouds.7 mph51%29.89 "HgN/A
1:50 pm79 °FPassing clouds.7 mph54%29.92 "HgN/A
1:20 pm77 °FPassing clouds.6 mph57%29.92 "HgN/A
12:50 pm77 °FPassing clouds.3 mph57%29.95 "HgN/A
12:20 pm75 °FSunny.2 mph57%29.95 "Hg10 mi
11:50 am73 °FPassing clouds.5 mph61%29.95 "HgN/A
10:50 am70 °FPassing clouds.5 mph69%29.98 "HgN/A
10:20 am66 °FPassing clouds.5 mph73%29.98 "HgN/A
9:50 am66 °FPassing clouds.5 mph73%29.98 "HgN/A
9:20 am64 °FSunny.3 mph73%29.98 "Hg10 mi
8:50 am64 °FPassing clouds.3 mph73%29.98 "HgN/A
8:20 am63 °FPassing clouds.3 mph83%29.98 "HgN/A
7:50 am63 °FSunny.2 mph77%29.98 "Hg10 mi
7:20 am63 °FSunny.2 mph77%29.98 "Hg10 mi
6:50 am59 °FSunny.2 mph88%29.98 "Hg10 mi
6:20 am59 °FPassing clouds.3 mph88%29.98 "HgN/A
5:50 am57 °FSunny.2 mph94%29.98 "Hg10 mi
5:20 am57 °FFog.2 mph94%29.98 "HgN/A
4:50 am57 °FFog.3 mph94%29.98 "HgN/A
4:20 am57 °FClear.3 mph94%29.98 "Hg10 mi
3:50 am59 °FClear.3 mph88%29.98 "Hg10 mi
3:20 am59 °FClear.3 mph94%29.98 "Hg10 mi
2:50 am59 °FClear.3 mph94%29.98 "Hg10 mi
2:20 am61 °FClear.2 mph88%29.98 "Hg10 mi
1:50 am63 °FClear.3 mph88%30.01 "Hg10 mi
1:20 am64 °FClear.5 mph83%30.01 "Hg10 mi
12:50 am66 °FClear.6 mph78%30.01 "Hg10 mi
12:20 am64 °FClear.6 mph83%30.01 "Hg10 mi
11:50 pm
Sun, May 28
68 °FClear.7 mph78%30.01 "Hg10 mi
11:20 pm68 °FPassing clouds.3 mph83%30.01 "HgN/A
10:50 pm68 °FPassing clouds.3 mph83%30.01 "HgN/A
10:20 pm70 °FClear.3 mph78%30.01 "Hg10 mi
9:50 pm72 °FPassing clouds.3 mph73%30.01 "HgN/A
9:20 pm73 °FPartly sunny.3 mph69%30.01 "HgN/A
8:50 pm75 °FPartly sunny.6 mph65%30.01 "HgN/A
8:20 pm75 °FPartly sunny.6 mph65%30.01 "HgN/A
7:50 pm77 °FPartly sunny.6 mph61%30.01 "HgN/A
7:20 pm77 °FPartly sunny.5 mph61%30.01 "HgN/A
Weather by CustomWeather, © 2017

See weather overviewHow to use our weather pages